Regional Weather Roundup
Issued by NWS

Home | Current Version | Previous Version | Graphics & Text | Print | Product List | Glossary On
Versions: 1 2 3 4 5 6 7 8 9 10 11 12 13 14 15 16 17 18 19 20 21 22 23 24 25 26 27 28 29 30 31 32 33 34 35 36 37 38 39 40 41 42 43 44 45 46 47
000
ASUS45 KBOU 220507
RWRCO

WEATHER ROUNDUP FOR COLORADO
NATIONAL WEATHER SERVICE DENVER/BOULDER CO
1100 PM MDT MON JUL 21 2014

NOTE: "FAIR" INDICATES FEW OR NO CLOUDS BELOW 12000 FEET WITH NO
SIGNIFICANT WEATHER AND/OR OBSTRUCTIONS TO VISIBILITY.

COZ001>005-013-030-031-220600-
...NORTHWEST COLORADO...

CITY           SKY/WX    TMP DP  RH WIND       PRES   REMARKS
CRAIG          CLEAR     56  47  71 CALM      30.26R
HAYDEN         CLEAR     66  37  34 E10       30.28R
MEEKER         CLEAR     61  31  32 CALM      30.28R
MOUNT WERNER   NOT AVBL
STEAMBOAT SPGS CLEAR     63  39  41 CALM      30.32R
WALDEN         CLEAR     50  34  53 E7        30.43R
$$

COZ006>008-011-220600-
...WEST CENTRAL VALLEYS...

CITY           SKY/WX    TMP DP  RH WIND       PRES   REMARKS
GRAND JUNCTION CLEAR     74  18  12 E3        30.13R
MONTROSE       CLEAR     72  32  23 E10       30.25R
EAGLE          CLEAR     66  41  39 E7        30.31R
RIFLE          CLEAR     72  37  28 E6        30.20R
DELTA          CLEAR     77  29  17 NE8       30.18R
NUCLA          CLEAR     70  27  19 E9        30.29S
$$

COZ017>023-064>068-220600-
...SOUTHWEST COLORADO...

CITY           SKY/WX    TMP DP  RH WIND       PRES   REMARKS
DURANGO        CLEAR     70  33  25 W5        30.31R
CORTEZ         CLEAR     64  32  30 NE7       30.26R
PAGOSA SPRINGS CLEAR     65  42  42 CALM      30.41R
TELLURIDE      CLEAR     63  34  34 E5        30.54R
WOLF CREEK PAS NOT AVBL
$$

COZ009-010-012-014-032>034-037-058>063-220600-
...CENTRAL COLORADO...

CITY           SKY/WX    TMP DP  RH WIND       PRES   REMARKS
ASPEN          CLEAR     62  34  35 SW10      30.41R
BUENA VISTA    CLEAR     60  35  38 NE3       30.44R
COPPER MTN     CLEAR     59  30  33 W3        30.78R
BERTHOUD PASS  FAIR      48  34  57 NW7       30.82S
COTTONWOOD PAS CLEAR     66  21  18 W8        30.60R
GUNNISON       CLEAR     61  39  44 NE5       30.45R
KREMMLING      CLEAR     59  36  41 CALM      30.40R
LEADVILLE      CLEAR     48  33  56 E3        30.58R
MONARCH PASS   CLEAR     54  32  43 NW9       30.88R
SALIDA         CLEAR    N/A N/A N/A W3        30.47R
SUNLIGHT       CLEAR     59  30  33 CALM      30.67S
WILKERSON PASS CLEAR     59  30  33 CALM      30.74S
$$

COZ069>075-220600-
...SAN LUIS VALLEY/SANGRE DE CRISTO MOUNTAINS...

CITY           SKY/WX    TMP DP  RH WIND       PRES   REMARKS
ALAMOSA        CLEAR     56  49  77 S7        30.41R
LA VETA PASS   CLOUDY    59  37  44 SW5       30.61S
SAGUACHE       CLEAR     59  43  55 E9        30.44R
$$

COZ035-036-038>040-220600-
...NORTHERN COLORADO FRONT RANGE...

CITY           SKY/WX    TMP DP  RH WIND       PRES   REMARKS
DENVER INTL AP PTCLDY    72  45  37 SW8       30.17R
DMNS CITY PARK   N/A     71  53  51 S3        30.18R
AURORA         PTCLDY    73  46  37 SW9       30.20R
FRONT RANGE AP NOT AVBL
ERIE MUNI ARPT CLEAR     68  53  58 CALM      30.16R
BOULDER MUN AP CLEAR     77  45  31 W6        30.17R
CENTENNIAL     PTCLDY    72  43  35 S8        30.22R
BROOMFIELD     NOT AVBL
FORT COLLINS   PTCLDY    73  54  49 CALM      30.15R
LONGMONT       PTCLDY    73  45  36 CALM      30.17R
$$

COZ041-046-047-076>085-087-088-220600-
...PIKES PEAK/PALMER DIVIDE AND SOUTHERN FOOTHILLS...

CITY           SKY/WX    TMP DP  RH WIND       PRES   REMARKS
COLO. SPRINGS  CLEAR     65  50  58 N6        30.27R
A. F. ACADEMY  CLEAR     60  48  63 N9        30.30R
ELLICOTT       CLEAR     66  50  56 S8        30.25R
FALCON         CLEAR     63  48  59 CALM      30.33R
FORT CARSON    CLEAR     70  47  45 N5        30.24R
LIMON          CLEAR     66  46  48 SE3       30.21R
MONUMENT HILL  CLEAR     63  43  48 SW7       30.32S
TRINIDAD       CLOUDY    71  52  50 SW9       30.25R
$$

COZ042>045-048>051-090-091-220600-
...NORTHEAST COLORADO...

CITY           SKY/WX    TMP DP  RH WIND       PRES   REMARKS
GREELEY ARPT   PTCLDY    73  48  40 NE8       30.14R
AKRON          PTCLDY    76  54  46 S13G24    30.12S
BURLINGTON     CLEAR     73  60  63 S13       30.13R
WRAY             N/A     76  60  57 S15G22    30.07R
STERLING       PTCLDY    79  55  44 NE10      30.07R
HOLYOKE        CLEAR     73  61  64 SE3       30.08R
FORT MORGAN    PTCLDY    74  48  39 NE13      30.13R
$$

COZ086-089-092>099-220600-
...SOUTHEAST COLORADO...

CITY           SKY/WX    TMP DP  RH WIND       PRES   REMARKS
PUEBLO         CLEAR     72  52  49 N3        30.14R
LA JUNTA       CLOUDY    76  57  51 E7        30.13R
LAMAR          CLOUDY    78  61  55 S20G30    30.09R
SPRINGFIELD      N/A     70  62  76 SE8       30.21R
$$


USA.gov is the U.S. government's official web portal to all federal, state and local government web resources and services.